COSMOS 252 DEB, 3551

Orbit data source: Space-Track

COSMOS 252 DEB, 3551 is space debris in LEO originally from a launch on Fri, 01 Nov 1968 UTC launched from the Tyuratam Missile And Space Complex (TTMTR). Debris objects in space refer to the collection of defunct objects orbiting the Earth. Examples of debris include non-operational satellites, rocket bodies, and fragments generated from explosions, collisions, or faulty payload assembly.

Loading next visibility...
Identifier
3551, 1968-097D
Orbit
LEO
Country
Flag of CISCIS
Related business
Manufacturer
Unknown
Mission
Spacecraft
Bus & Motor
Unknown
Mass
Unknown
Launch date (UTC)
1968-11-01 (57 years ago)
Launch vehicle
Unknown
Launch site
Tyuratam Missile And Space Complex (TTMTR)
Object type
Payload
Rocket body
Debris
Shape & HBR
Unknown shape, 0.1 m
Radar Cross Section
Small (<0.1 m²)

Expand to show TLE details & history
Last TLE update: 5 hours ago

TLE from 5 hours ago
0 COSMOS 252 DEB
1  3551U 68097D   26036.50411258  .00004248  00000-0  90421-3 0  9994
2  3551  62.2811 115.5930 0624394 116.1201 250.5441 13.80832465790366
Epoch: 2026-02-05T12:05Z
TLE epoch observation values (Epoch: 2026-02-05T12:05:55.326Z)
Latitude
-0.00001°
Longitude
158.45708°
Altitude
1,139.915 km
Speed
7.195 km/s
True Right ascension
07h 42m 22s
True Declination
0° 00' 00"
Sunlit
Object was in full shadow at epoch
Visualization orbit readout
Latitude
Unknown
Longitude
Unknown
Altitude
Unknown
Speed
Unknown
Apparent Right ascension
Unknown
Apparent Declination
Unknown
Sunlit
N/A
Visualization observer readout
Local Sidereal Time
18:43:14
Azimuth
Unknown
Elevation
Unknown
Doppler factor
Unknown
Orbital elements
Apogee altitude
1,418.062 km
Perigee altitude
501.7 km
Semi-major axis
7,338.018 km
Eccentricity
0.06244
Inclination
62.2811°
RAAN
115.593°
Arg. of periapsis
116.1201°
True anomaly
243.98306°
Mean anomaly
250.5441°
Eccentric anomaly
247.24503°
Mean motion
3.45283 °/min
Orbital period
104.26 mins
BSTAR
0.00090421
Loading maneuver chart data...
Computing Atmospheric mass density...

Documentation

Showing up to 5 results
|